Location: Stull Observatory
(42.2506°N, 77.7903°W)
Time: 10:09:25
(UTC-04:00)

Daily predictions for brighter satellites

Satellite Brightness Start Highest point End
(mag) Time Altitude Azimuth Time Altitude Azimuth Time Altitude Azimuth
CENTAUR R/B 3.3 20:53:27 10° NW 21:01:20 80° WSW 21:09:39 10° SSE
Cosmos 1340 Rocket 3.2 21:02:51 10° SSW 21:06:49 69° W 21:10:51 10° N
Cosmos 1606 3.8 21:08:11 10° NNE 21:11:39 29° ENE 21:15:05 10° SE
ALOS 3.3 21:08:04 10° S 21:12:34 48° W 21:17:07 10° NNW
SJ-11-01 4.4 21:07:55 10° SSE 21:12:38 69° ENE 21:17:22 10° N
Cosmos 1908 Rocket 4.5 21:08:57 10° SSE 21:12:46 30° E 21:16:38 10° NNE
Cosmos 2056 Rocket 3.4 21:08:02 10° SSW 21:13:11 75° ESE 21:18:18 10° NNE
Cosmos 1782 3.0 21:10:16 10° N 21:14:14 53° E 21:18:11 10° SSE
deb Chang Zheng 4 4.1 21:11:13 10° NNE 21:15:22 39° E 21:19:31 10° SSE
Cosmos 1371 Rocket 4.3 21:10:13 10° SSW 21:15:32 78° WNW 21:20:51 10° NNE
Cosmos 1733 Rocket 3.0 21:11:23 10° S 21:15:47 74° E 21:20:10 10° NNE
Cosmos 2154 Rocket 4.5 21:10:26 10° SSE 21:16:09 40° E 21:21:52 10° NNE
Cosmos 1892 2.9 21:14:50 10° SSW 21:18:39 76° W 21:22:32 10° N
Atlas Centaur 2 3.1 21:17:12 10° SSW 21:18:51 13° S 21:20:31 10° SSE
NOSS 2-2 (D) 3.7 21:15:37 10° SW 21:19:44 84° WNW 21:24:34 10° NE
Cosmos 2084 4.2 21:17:23 10° S 21:20:34 24° ESE 21:23:43 10° ENE
Cosmos 2184 Rocket 4.0 21:16:35 10° S 21:22:44 89° E 21:28:57 10° N
Cosmos 1939 Rocket 2.9 21:19:34 10° SSE 21:23:23 62° ENE 21:27:17 10° N
H-2A R/B 4.5 21:23:02 10° SSW 21:26:21 31° W 21:29:43 10° NNW
YAOGAN 11 4.5 21:21:52 10° S 21:26:21 71° WSW 21:30:57 10° NNW
Cosmos 1238 Rocket 3.7 21:24:24 10° NNE 21:27:09 25° E 21:29:42 13° SE
COS B Rocket 3.8 21:25:36 10° NNE 21:29:29 39° E 21:32:56 10° SSE
SL-27 R/B 2.7 21:28:03 10° NNW 21:31:43 74° WSW 21:35:18 10° SSE
SPOT 5 3.4 21:27:13 10° SE 21:32:18 51° ENE 21:37:30 10° N
SL-8 R/B 4.0 21:28:05 10° WSW 21:32:54 70° NNW 21:37:43 10° ENE
Terra 4.0 21:32:02 10° ENE 21:33:06 11° ENE 21:34:11 10° NE
ISS -2.3 21:30:29 10° SSW 21:33:15 26° SE 21:36:02 10° ENE
NOSS 2-2 (C) 4.2 21:30:25 10° SW 21:34:29 61° NW 21:39:18 10° NNE
Meteor 2-6 Rocket 4.4 21:32:51 10° N 21:38:51 87° W 21:44:42 10° S
H-2A R/B 2.0 21:38:34 10° SSE 21:42:55 87° ENE 21:47:10 10° NNW
COSMOS 2487 3.2 21:41:24 10° N 21:44:49 38° ENE 21:47:00 19° SE
ARGOS 4.0 21:42:25 15° SE 21:46:19 35° ENE 21:51:08 10° N
ATLAS 5 CENTAUR R/B 3.3 21:40:36 10° NW 21:46:21 46° WSW 21:52:28 10° S
Envisat 3.1 21:43:29 10° SSE 21:48:34 83° WSW 21:53:41 10° NNW
COSMOS 2406 4.3 21:47:23 10° NW 21:52:46 42° WSW 21:58:05 10° S
BREEZE-M DEB (TANK) 3.8 21:39:51 10° WNW 21:55:07 77° NNE 21:58:21 18° ESE
Cosmos 1420 Rocket 4.4 21:54:00 10° S 21:58:55 42° ESE 22:03:50 10° NNE
Intercosmos 25 3.8 21:57:44 22° SE 21:59:17 32° E 22:02:11 10° NNE
GPS 2-05 Rocket1 4.1 21:57:08 10° SW 22:00:08 23° S 22:00:35 23° SSE
Cosmos 1833 Rocket 4.0 22:00:14 10° N 22:04:58 27° NE 22:08:17 16° E
Cosmos 2278 Rocket 2.1 21:59:23 10° SSW 22:05:01 69° ESE 22:10:40 10° NNE
H-2A R/B 3.3 22:03:38 18° ESE 22:06:30 28° ENE 22:10:59 10° N
Cosmos 407 Rocket 4.2 22:01:47 10° NNW 22:06:54 52° WSW 22:11:47 11° S
Cosmos 1825 2.2 22:04:37 10° S 22:08:26 86° W 22:12:17 10° N
YAOGAN 6 2.4 22:06:45 25° SSE 22:08:41 78° ENE 22:12:12 10° N
Okean 2 Rocket 3.1 22:05:29 17° S 22:08:50 60° E 22:13:11 10° NNE
ERS-1 Rocket 4.4 22:04:29 10° SSW 22:09:04 35° W 22:13:42 10° NNW
Cosmos 1844 4.0 22:03:33 10° SSW 22:09:18 75° WNW 22:15:08 10° NNE
Cosmos 1408 2.6 22:06:51 11° S 22:10:23 82° W 22:14:02 10° N
Nadezhda 3 Rocket 4.2 22:04:02 10° N 22:10:24 77° W 22:16:37 11° S
Cosmos 1844 Rocket 3.5 22:05:18 10° SW 22:10:49 54° WNW 22:16:22 10° NNE
Cosmos 2218 Rocket 4.5 22:07:31 19° SSE 22:11:43 43° E 22:17:42 10° NNE
BREEZE-M DEB (TANK) 4.2 22:09:46 10° W 22:12:32 44° N 22:19:29 10° ENE
Cosmos 1140 Rocket 3.4 22:10:34 10° NNW 22:15:43 72° ENE 22:18:40 26° SSE
Cosmos 1242 Rocket 2.6 22:12:09 10° N 22:15:47 61° E 22:17:12 33° SSE
Cosmos 1452 Rocket 3.8 22:10:59 10° SSW 22:16:13 71° WNW 22:21:31 10° NNE
MetOp-A 4.3 22:13:36 16° S 22:17:54 75° WSW 22:23:17 10° NNW
Okean 3 3.6 22:16:38 10° NNW 22:20:55 71° W 22:23:41 21° S
SPOT 1/Viking Rocket 3.5 22:18:19 23° SSE 22:21:38 81° ENE 22:26:52 10° NNW
USA 234 3.7 22:17:29 10° ENE 22:23:23 35° SE 22:29:13 10° SSW
Cosmos 2082 Rocket 2.8 22:18:49 10° NNW 22:24:18 45° ENE 22:27:07 26° ESE
Cosmos 1862 4.3 22:20:24 10° SSW 22:24:20 48° WNW 22:28:18 10° N
CZ-4 R/B 3.9 22:20:11 10° NNE 22:24:45 51° E 22:26:54 28° SSE
Cosmos 1782 Rocket 3.8 22:21:11 11° SSW 22:25:24 74° W 22:29:55 10° N
Cosmos 1727 Rocket 4.5 22:20:57 10° N 22:26:49 43° ENE 22:29:40 27° SE
Cosmos 1812 4.3 22:25:07 10° NNE 22:28:04 20° ENE 22:28:24 20° E
CZ-4B R/B 3.3 22:23:36 10° NNE 22:28:35 77° ESE 22:32:07 19° S
Meteor 2-13 Rocket 4.4 22:23:56 11° S 22:29:52 88° E 22:36:04 10° N
Cosmos 2341 Rocket 4.4 22:27:04 10° SSW 22:33:20 66° W 22:39:35 10° N
DNEPR-1 R/B 3.8 22:30:37 10° NW 22:36:05 89° ENE 22:37:55 38° SSE
Cosmos 2297 3.7 22:34:15 16° S 22:38:53 66° ESE 22:44:34 10° NNE
Cosmos 1975 Rocket 3.7 22:36:10 10° NNW 22:40:22 51° W 22:42:49 23° SSW
Cosmos 1184 Rocket 4.4 22:38:59 13° SW 22:41:37 35° WNW 22:44:44 10° N
CARTOSAT-1 4.0 22:41:40 38° ESE 22:42:40 46° ENE 22:46:48 10° N
Timation 2 Rocket 3.9 22:40:41 10° NNW 22:46:40 76° WSW 22:49:32 32° SSE
CZ-4C R/B 3.3 22:46:34 53° SE 22:47:18 68° ENE 22:51:22 10° N
NOAA 11 4.3 22:45:02 27° S 22:48:04 71° WSW 22:53:35 10° NNW
Cosmos 1850 Rocket 4.1 22:43:21 10° NNW 22:48:40 78° WSW 22:50:56 36° S
SL-8 Rocket 4.1 22:45:50 17° SSW 22:50:50 80° W 22:57:08 10° N
Cosmos 1536 Rocket 3.6 22:48:47 10° N 22:53:15 67° E 22:54:12 51° SE
Landsat 7 3.7 22:52:46 43° SSE 22:54:20 87° ENE 22:59:08 10° NNW
Meteor 2-8 Rocket 4.4 22:50:03 10° N 22:56:13 73° E 22:58:43 38° SSE
DMSP B5D2-2 4.1 22:55:24 10° NNE 23:00:34 60° E 23:01:53 45° SSE
BREEZE-M TANK 3.5 22:55:45 10° W 23:07:04 66° N 23:09:01 28° ENE
Cosmos 1741 Rocket 4.5 23:03:16 10° NNW 23:08:22 53° WSW 23:10:12 36° SSW
BREEZE-M DEB (TANK) 4.0 23:06:56 10° NW 23:08:53 23° N 23:12:18 10° ENE
ISS -2.0 23:06:28 10° W 23:09:34 41° NNW 23:12:41 10° NE
USA 229 DEB 3.7 23:02:44 10° NW 23:09:53 85° NE 23:12:49 40° SE
USA 229 3.7 23:02:50 10° NW 23:09:59 84° NE 23:12:55 40° SE
Terra 1.7 23:09:02 56° SSE 23:10:04 87° E 23:14:52 10° NNW
Cosmos 2369 Rocket 4.0 23:15:46 16° E 23:15:46 16° E 23:17:52 10° ENE
Cosmos 2151 Rocket 4.0 23:13:00 37° SW 23:14:38 60° W 23:19:08 10° N
Spot 4 3.8 23:16:28 60° SE 23:17:18 78° ENE 23:22:10 10° N
Cosmos 1331 Rocket 3.9 23:20:06 59° SE 23:20:35 62° ESE 23:25:41 10° NNE
Meteor 1-20 Rocket 4.1 23:22:26 46° S 23:24:10 90° W 23:29:44 10° N
Cosmos 1110 Rocket 3.8 23:25:13 58° S 23:26:14 80° ESE 23:31:28 10° NNE
Okean 1 3.3 23:22:42 10° N 23:26:36 80° NNE 23:26:36 80° NNE
Lacrosse 5 3.7 23:30:40 17° ENE 23:30:40 17° ENE 23:32:07 10° ENE
ASTEX 1 3.2 23:26:28 10° N 23:31:27 81° E 23:31:59 70° SSE
Cosmos 1025 Rocket 4.0 23:31:35 10° N 23:35:16 36° ENE 23:35:16 36° ENE
Cosmos 1300 Rocket 3.5 23:39:23 78° W 23:39:26 78° W 23:43:55 10° N
IGS 5A 4.1 23:39:52 46° WSW 23:39:57 46° W 23:43:59 10° NNW
Okean 1 Rocket 3.0 23:40:29 86° NNW 23:40:29 86° NNW 23:44:54 10° N
Okean 1-7 Rocket 3.6 23:41:02 10° N 23:45:24 81° NW 23:45:24 81° NW
H-2A R/B 3.1 23:44:16 33° SW 23:45:43 40° W 23:50:44 10° NNW
Cosmos 1633 4.5 23:49:34 24° NE 23:49:34 24° NE 23:51:19 10° NNE
Cosmos 1833 Rocket 3.1 23:43:44 10° NW 23:49:07 48° WSW 23:49:59 44° SW
Spot 2 4.2 23:45:14 10° N 23:49:33 65° WNW 23:49:34 65° WNW
Cosmos 1486 Rocket 3.9 23:44:48 10° NNW 23:50:10 83° ENE 23:50:34 76° SE
Cosmos 1943 Rocket 4.3 23:56:03 13° ENE 23:56:03 13° ENE 23:57:17 10° ENE
